sat.trackr.live / text

‹ back to catalog

STARLINK-32197

NORAD 60416 · 2024-141U

PAYLOAD ACTIVE UNKNOWN

§ Identity

Operator
Country
US
Launch date
2024-08-10
Launch site
AFETR
Launch vehicle
Mass (kg)
RCS (m²)

Purposes: comms

External: N2YO · Heavens-Above · Gunter

§ Orbital elements

Epoch: 2026-09-21T09:28:28.594560Z

Period
94.01 min
Inclination
53.1604°
Eccentricity
0.0000935
Mean motion
15.31699535 rev/d
Perigee alt
470.1 km
Apogee alt
471.4 km
Semi-major
6,848.9 km
B*
5.1509e-6
RAAN
42.1932°
Arg perigee
87.1353°
Mean anomaly
272.9755°
Rev number
11,964

§ Raw data

STARLINK-321971 60416U 24141U   26264.39477540 -.00000205  00000+0  51509-5 0  99902 60416  53.1604  42.1932 0000935  87.1353 272.9755 15.31699535119648

JSON: /api/v1/satellites/60416 · /tle

For live sub-satellite position, see the globe view (requires WebGL).

§ Visibility from observer

Set your observer location to see the next 7 days of passes ≥ 10°. The values pass through the URL so the page stays shareable.

No JS? Fill the form by hand. The geolocation button needs JavaScript.